Location: Unspecified
(0.0000°N, 0.0000°E)
Time: 17:11:55
(UTC+00:00)

Transit 2A Rocket - Visible Passes

Search period start: 18 June 2019 00:00
Search period end: 28 June 2019 00:00
Orbit: 586 x 917 km, 66.7° (Epoch: 17 June)

Date Brightness Start Highest point End Pass type
(mag) Time Alt. Az. Time Alt. Az. Time Alt. Az.
21 Jun 7.1 20:08:01 10° N 20:08:34 13° NNE 20:08:34 13° NNE visible
22 Jun 6.9 19:27:38 10° NE 19:27:40 10° NE 19:27:40 10° NE visible
23 Jun 6.6 20:24:51 10° NNW 20:26:46 24° NW 20:26:46 24° NW visible
24 Jun 5.1 19:42:30 10° N 19:45:59 43° NNE 19:45:59 43° NNE visible
25 Jun 5.9 19:00:59 10° NNE 19:04:21 21° ENE 19:05:16 20° E visible
25 Jun 7.4 20:44:06 10° WNW 20:45:13 13° W 20:45:13 13° W visible
26 Jun 5.8 20:00:09 10° NW 20:04:10 35° WSW 20:04:33 34° WSW visible
27 Jun 4.4 19:17:19 10° NNW 19:21:45 88° W 19:23:56 29° SSE visible
